Theta_e
346 344 344 344 345 344 345 347 347 348 351 353 355 359 359 360 360 360 360 360 359 359 359 358 357 356 356 356 356 356 356 357 358 358 357 357 356 356 356 355 354 353 353 353 352 352 351 350 348 352 351 351 351 351 352 352 351 352 351 350 350 349 350 350 350 349 348 348 348 349 350 349 348 348 348 348 349 349 349 350 349 345 346 346 348
344 343 343 345 348 346 347 347 346 346 346 345 345 348 353 355 359 360 360 360 359 359 358 357 356 355 355 355 355 356 356 357 357 356 356 356 356 355 355 354 353 353 353 353 352 351 350 349 349 351 351 350 351 351 351 351 351 351 350 350 350 350 349 349 349 349 349 349 349 349 349 349 348 347 346 348 348 348 349 346 349 345 345 348 348
343 344 344 346 349 348 349 350 350 350 349 349 348 347 347 349 352 356 359 359 359 358 357 357 356 355 355 355 355 355 356 357 356 356 355 355 355 355 354 354 353 354 352 352 351 349 348 348 348 349 350 350 349 351 351 351 351 350 350 350 349 349 349 350 350 349 349 350 350 349 348 348 348 348 348 346 346 346 347 347 347 348 344 348 348
344 344 345 347 350 350 350 352 351 351 350 350 349 348 348 348 350 353 355 358 358 357 357 356 356 355 355 355 355 356 356 356 356 355 355 354 354 355 354 353 352 352 351 351 350 349 348 349 349 349 349 349 350 350 351 350 350 350 350 349 349 349 348 348 349 349 349 349 348 347 346 341 342 346 348 348 348 348 348 348 349 348 347 347 347
345 344 343 344 346 350 351 352 353 352 351 350 350 350 349 350 350 349 350 352 356 357 356 355 355 355 354 354 354 354 355 355 355 355 355 354 354 354 353 352 351 350 351 349 349 349 349 349 349 349 350 350 350 351 350 350 350 350 350 350 350 349 348 347 348 349 350 350 345 344 341 342 342 346 347 347 347 348 348 348 347 347 347 346 346
344 344 343 344 346 348 350 350 351 352 351 351 350 350 350 350 350 350 350 352 354 356 356 355 355 354 354 354 353 353 353 354 353 353 354 353 353 352 351 350 350 350 350 350 350 350 350 350 350 350 351 350 349 350 350 349 350 350 350 350 349 349 349 349 348 348 348 347 348 349 340 341 342 343 347 346 346 346 347 347 348 348 348 348 347
345 346 344 344 347 348 350 351 352 352 352 350 350 350 350 349 349 349 348 349 352 356 355 355 354 354 354 353 353 353 353 353 353 353 352 352 354 351 350 350 350 349 350 350 351 350 351 351 351 351 350 350 350 349 349 349 349 349 349 349 349 348 348 348 347 347 347 345 347 345 339 341 342 343 347 346 346 347 347 347 346 346 345 346 347
345 347 347 346 348 351 351 351 352 352 352 350 350 349 349 349 349 349 348 348 350 353 355 355 354 353 353 353 352 352 352 352 352 352 351 352 354 353 350 350 350 350 350 351 351 351 352 351 352 351 350 350 350 349 349 349 349 350 349 349 348 348 346 345 346 345 347 345 344 342 339 341 342 343 347 346 346 346 346 345 345 344 344 345 347
344 346 347 347 349 351 351 351 351 352 352 351 351 350 350 350 349 348 348 350 352 352 354 354 354 353 352 352 352 352 352 351 351 351 352 351 351 352 353 350 350 351 351 350 351 352 352 351 351 351 351 350 349 349 348 349 349 349 348 347 347 347 346 345 347 347 346 346 341 339 340 341 342 342 346 347 346 346 345 345 345 346 345 345 345
344 347 346 349 350 351 351 351 351 351 352 352 352 351 351 351 350 349 349 349 351 352 354 354 353 353 352 351 351 351 351 351 351 351 351 351 351 351 351 351 351 352 351 350 350 351 351 351 351 351 351 350 349 348 348 348 349 348 348 347 346 347 347 345 346 349 346 344 340 340 342 347 342 343 346 348 346 344 344 346 345 345 345 347 347
345 348 349 350 349 351 350 350 350 351 351 352 352 351 351 351 351 350 349 350 351 353 354 353 353 352 352 351 350 350 350 350 350 351 351 351 351 351 351 351 352 351 350 350 351 351 351 351 351 350 351 350 350 349 349 348 348 347 347 346 346 345 348 346 350 345 346 338 341 341 346 349 342 343 347 347 346 346 347 347 348 347 346 346 345
346 348 350 352 352 350 350 350 351 351 351 352 351 351 351 351 351 350 350 351 352 353 353 352 352 352 351 351 350 350 350 350 350 351 351 351 350 350 351 351 351 351 351 351 351 351 350 350 351 350 350 350 349 349 349 348 348 347 346 346 346 346 349 350 349 341 337 337 339 341 341 343 344 345 347 347 348 347 347 347 347 346 345 344 344
345 348 348 349 349 349 349 350 351 351 351 351 352 351 351 351 351 351 351 352 353 353 353 353 352 352 351 351 350 351 351 351 351 351 351 350 350 350 351 351 351 350 351 351 350 350 350 350 351 351 350 349 350 350 349 349 347 347 346 346 346 348 349 350 347 338 339 339 338 338 338 342 343 347 346 346 346 346 346 346 346 345 344 344 344
343 345 346 348 349 351 348 349 349 350 351 351 351 351 351 351 351 351 352 353 353 353 353 352 352 352 351 351 352 352 351 350 351 351 351 350 350 351 351 351 351 351 351 350 350 350 351 351 351 350 350 350 350 350 349 349 348 345 347 346 347 347 347 349 351 339 340 339 339 338 339 341 343 346 347 346 345 347 346 346 345 345 345 344 344
344 345 347 347 346 347 350 348 349 349 349 350 350 350 350 350 350 351 351 352 353 352 352 352 352 352 353 353 352 352 352 352 351 351 351 351 351 351 351 351 350 351 350 351 351 351 351 350 350 350 350 350 351 350 350 349 347 347 345 347 346 346 349 346 343 338 338 339 339 338 339 342 346 346 345 346 345 345 346 345 345 344 344 343 343
346 346 346 347 347 347 347 349 348 348 349 349 349 350 350 350 350 351 352 352 352 352 352 352 352 353 353 353 353 353 353 353 351 351 351 351 351 351 351 351 350 350 351 352 352 351 351 351 351 351 351 351 351 351 350 349 347 346 347 345 347 346 348 348 346 338 339 338 337 337 338 342 346 345 344 345 345 345 345 345 344 344 344 343 342
346 347 347 347 348 348 348 347 347 347 347 348 348 349 349 350 351 351 352 352 352 352 352 353 353 353 353 353 353 353 353 353 352 352 351 351 351 351 351 350 350 350 351 351 351 351 351 351 351 351 351 351 352 351 350 348 347 347 344 347 346 347 347 348 346 339 339 338 337 336 338 340 345 345 344 344 346 345 345 344 344 344 343 343 342
347 347 346 348 348 349 349 348 349 347 347 347 348 348 349 349 350 351 351 352 353 353 353 353 354 354 353 352 353 353 353 352 352 352 352 351 351 351 351 350 349 350 350 351 351 352 351 351 352 352 352 352 351 350 349 348 347 346 347 346 348 347 348 351 344 339 339 340 338 342 340 343 345 344 345 344 344 344 344 344 343 343 343 343 343
343 343 344 345 347 349 349 349 350 348 349 349 348 347 348 349 350 350 350 351 351 352 353 354 354 353 353 353 353 353 353 352 353 352 351 351 351 351 351 351 350 350 351 352 352 352 352 351 352 352 352 351 351 350 350 348 346 348 345 347 346 348 349 348 340 338 339 336 336 340 341 345 344 344 343 344 344 344 344 344 343 343 342 343 343
341 341 342 343 344 344 347 347 349 349 349 350 350 346 344 347 350 349 350 351 352 352 353 353 353 353 353 353 353 352 352 351 352 351 351 351 351 351 351 352 352 351 352 351 352 352 352 352 351 351 351 351 350 350 349 348 348 346 347 347 347 347 345 345 340 337 335 335 338 340 344 345 344 344 343 344 344 343 343 344 344 343 342 342 342
340 340 341 341 342 342 344 346 347 348 348 348 350 349 346 342 346 349 349 350 351 352 353 353 353 352 352 353 353 350 351 350 350 349 351 350 351 350 351 351 351 351 351 351 352 352 352 352 352 351 351 351 350 349 349 348 348 348 349 347 349 343 346 344 343 337 335 335 339 341 344 344 344 344 343 343 343 343 343 343 343 342 342 342 342
334 335 339 341 341 342 342 343 343 346 348 349 348 348 347 344 347 348 348 349 350 352 352 351 354 352 352 351 351 350 349 348 348 350 349 350 351 351 352 350 351 352 353 352 352 352 352 352 351 352 351 351 350 348 348 348 348 349 348 348 344 344 348 346 336 335 335 333 340 343 344 344 344 344 343 343 343 343 342 343 342 342 342 342 342
333 333 335 340 341 341 343 343 345 345 346 347 347 348 346 348 347 347 346 345 348 351 352 351 350 350 350 350 352 351 347 348 348 348 348 351 350 351 352 351 351 352 352 352 353 353 352 352 352 351 352 351 348 350 347 344 346 349 348 345 346 345 342 338 335 334 333 334 338 344 344 344 344 344 343 343 342 342 342 342 342 341 342 342 342
333 332 333 338 340 340 343 344 344 346 345 344 346 348 348 349 347 347 348 346 348 350 350 350 349 350 349 351 351 349 348 350 350 350 349 348 351 352 352 351 350 351 353 353 352 352 353 353 352 352 352 350 347 349 349 351 345 342 344 347 347 347 345 336 333 332 333 335 338 344 344 343 343 344 343 343 342 342 342 342 342 341 341 342 343
333 334 333 336 339 340 341 342 343 345 345 345 346 347 346 346 346 345 347 348 345 346 348 349 349 350 349 353 348 352 347 347 348 348 346 347 350 349 350 349 349 348 352 348 349 347 351 349 350 350 347 347 348 347 347 345 347 346 347 344 348 343 341 335 333 332 333 335 341 344 343 343 343 343 343 343 342 342 342 342 342 342 341 342 343
334 331 331 334 337 339 340 341 343 344 344 343 343 346 346 345 345 347 348 348 349 346 345 347 350 351 354 351 356 351 350 348 350 347 346 347 348 347 348 348 348 346 350 346 345 346 347 346 347 346 347 347 349 347 346 346 345 346 345 343 340 342 341 334 334 334 334 338 341 344 343 343 343 343 343 343 343 342 342 342 342 342 342 342 342
330 330 332 333 336 339 339 341 340 341 343 344 345 343 346 348 348 347 346 346 348 345 342 342 348 349 350 350 352 349 349 349 346 350 348 347 345 347 347 347 345 345 347 344 344 346 344 343 344 343 345 346 346 346 344 345 344 342 343 342 344 341 336 334 334 334 334 337 342 344 343 342 342 342 343 342 342 342 342 343 343 342 342 341 342
326 327 327 329 333 336 337 337 339 339 340 342 343 342 345 345 348 347 347 348 345 345 343 344 346 348 351 349 352 351 350 345 345 345 344 342 348 344 345 344 345 345 345 343 342 344 343 343 342 341 342 344 342 344 345 346 347 344 340 340 339 343 337 334 334 334 334 334 340 343 343 342 342 342 342 342 342 342 342 342 341 341 342 341 342
323 325 325 326 328 333 333 331 333 336 338 340 340 340 341 345 346 345 345 345 347 345 347 342 342 344 346 347 350 350 347 346 344 343 345 344 344 344 348 345 345 343 344 343 342 343 345 341 340 339 341 342 344 343 343 342 347 343 340 339 340 345 337 334 333 333 334 334 335 341 344 343 342 342 342 342 342 342 342 342 341 341 341 341 342
323 325 324 325 328 329 330 329 330 332 335 337 338 339 341 341 344 345 346 346 347 346 344 342 346 344 342 345 349 350 348 346 344 341 339 342 342 342 344 349 345 345 345 344 343 340 342 339 338 352 338 340 340 344 344 341 340 342 344 340 340 340 338 335 333 333 334 335 336 340 344 343 343 342 342 343 343 342 342 342 341 341 341 341 342
323 322 324 325 328 329 329 330 329 331 332 333 336 338 340 340 342 344 346 346 345 347 345 345 346 345 343 345 348 349 348 346 346 343 343 344 342 344 344 347 350 348 348 343 348 348 342 344 348 346 351 347 341 343 342 343 343 341 337 339 339 340 339 338 335 334 334 336 337 338 340 342 342 342 342 342 342 342 342 342 342 341 341 341 342
321 322 322 325 327 328 329 330 329 330 329 331 333 335 338 338 342 343 344 343 346 345 346 344 343 342 344 343 346 349 349 345 346 345 347 344 343 343 343 347 347 354 350 345 342 339 348 344 347 346 343 348 346 344 341 342 341 343 342 338 340 339 341 341 336 334 334 335 336 338 339 339 342 341 341 341 341 342 342 342 342 341 341 342 342
321 323 322 325 326 326 328 329 329 329 329 329 331 333 336 337 339 341 343 342 341 344 345 343 342 342 344 341 344 344 345 347 346 346 345 340 340 340 342 342 348 349 347 347 348 348 349 344 346 345 347 344 343 339 340 341 338 338 347 341 340 339 341 340 338 336 334 335 336 338 338 339 339 341 341 341 342 342 342 342 342 342 342 341 341
319 321 324 323 325 325 326 328 328 328 328 329 330 329 333 335 338 340 344 344 344 344 342 343 343 344 342 342 342 343 345 347 347 345 345 342 341 341 341 341 344 349 347 347 348 342 342 342 344 345 345 342 340 344 344 338 342 340 339 341 340 340 340 339 339 338 337 336 336 336 337 338 338 337 338 341 342 342 341 341 341 342 342 342 341
320 321 322 323 325 324 325 325 326 326 327 329 328 329 331 332 334 338 340 343 345 343 343 344 342 341 342 343 343 342 343 345 347 346 345 345 342 340 339 341 342 347 347 346 342 338 342 343 342 342 341 341 342 340 337 336 336 336 338 339 338 340 344 340 341 340 340 338 339 337 337 337 337 337 337 336 339 339 341 341 342 342 342 342 342
320 321 321 322 323 324 324 323 325 325 325 328 328 329 329 333 335 336 339 342 341 341 342 343 342 342 342 342 341 341 341 343 346 347 345 344 343 342 341 341 343 344 344 346 345 342 343 344 344 339 335 338 338 337 341 339 341 338 341 341 340 340 341 342 340 340 342 342 339 339 338 337 336 335 337 335 335 337 338 339 341 341 341 341 341
321 321 321 321 321 323 323 323 323 324 324 327 328 327 329 330 333 336 337 338 340 340 342 344 342 341 342 339 341 341 342 342 344 346 346 343 344 343 342 342 343 341 339 341 344 339 347 343 344 347 338 336 338 337 343 343 343 343 341 339 342 342 340 340 340 340 341 341 340 340 340 339 337 341 336 335 335 334 336 337 337 340 340 341 341
322 322 322 321 320 322 321 323 323 324 324 326 326 327 327 329 330 333 336 336 338 339 340 341 340 341 341 340 340 341 342 342 343 345 345 344 343 343 343 342 341 340 339 339 339 337 342 335 342 346 344 342 338 340 338 337 337 337 336 337 344 343 342 342 342 344 341 339 339 339 340 340 338 337 337 336 334 335 335 335 336 337 340 340 340
321 322 322 321 321 321 321 323 322 324 323 325 325 325 326 326 328 329 329 332 335 338 342 339 337 340 340 340 340 341 342 341 341 346 345 342 341 341 341 341 340 340 339 337 336 334 338 340 341 345 346 348 344 340 338 336 334 335 335 336 337 341 342 342 346 343 343 343 341 341 342 340 340 340 339 337 336 335 334 333 332 332 333 338 340
322 322 322 321 321 321 321 321 321 323 323 323 321 320 321 321 322 325 326 328 332 334 337 340 339 338 338 340 339 342 342 338 339 342 343 341 341 341 339 340 339 339 337 335 335 334 338 340 341 345 340 342 348 341 338 336 334 334 335 336 336 338 343 341 340 342 341 343 341 342 340 340 339 339 340 340 338 336 334 333 333 331 331 334 337
321 322 320 320 321 319 320 319 319 323 320 319 319 319 318 318 321 323 323 325 329 333 335 336 337 336 338 340 339 340 341 339 339 340 341 342 341 343 343 343 341 339 338 335 337 336 339 344 343 345 340 338 342 343 341 337 332 331 334 334 336 340 343 342 339 340 341 339 342 345 343 341 340 340 339 340 340 338 336 335 335 331 330 329 331
319 320 318 321 320 320 320 319 319 321 319 322 320 321 320 320 319 321 323 324 327 329 331 334 336 336 337 337 339 339 338 338 338 338 342 340 340 341 341 341 340 338 336 336 336 339 337 338 343 340 344 338 339 341 337 337 333 330 327 329 336 341 342 340 339 339 339 341 341 342 342 341 340 341 342 341 340 340 339 338 338 331 328 328 328
319 320 318 320 319 318 319 319 319 319 319 322 320 319 321 323 322 323 324 325 329 332 333 333 334 337 338 337 339 340 338 336 336 337 339 339 340 340 340 342 341 338 337 339 336 335 334 336 339 340 337 341 340 341 338 340 331 333 334 331 328 328 333 338 339 338 339 339 340 339 336 338 340 342 342 341 340 339 340 339 338 335 330 328 327
318 317 317 319 317 318 318 318 319 319 319 322 321 321 322 323 324 325 326 328 326 330 332 333 332 333 334 337 336 336 337 335 335 337 337 338 341 339 339 341 340 340 339 337 335 335 336 337 338 341 340 337 335 335 341 342 335 330 325 328 328 328 323 329 331 335 337 337 338 338 337 337 341 343 342 339 340 340 339 339 338 335 336 333 328
317 317 317 318 315 318 318 318 318 318 320 321 320 321 322 322 323 324 325 326 327 326 327 327 328 330 332 334 334 335 336 336 336 337 337 338 340 340 340 339 340 341 339 337 334 336 336 335 337 339 340 337 334 334 337 339 339 340 333 329 327 324 324 330 332 330 335 336 337 336 338 336 336 337 341 341 342 342 341 340 339 337 336 335 334
317 318 318 319 318 318 317 318 318 318 318 320 319 319 319 319 319 318 318 319 319 320 320 322 325 327 328 333 335 335 336 336 334 333 334 337 340 339 340 341 340 341 341 338 337 337 336 334 337 337 337 338 336 334 333 337 343 341 341 342 340 326 327 329 329 323 333 335 335 336 337 338 340 339 340 342 341 341 341 341 340 338 337 335 335
315 317 318 318 319 317 318 318 317 317 317 319 318 320 318 318 318 318 319 319 318 321 324 326 327 328 330 331 333 335 334 335 333 332 334 337 339 340 339 339 338 338 342 339 339 336 334 336 336 337 337 334 336 333 334 335 338 339 340 342 342 341 335 330 326 329 325 330 332 334 335 337 339 340 340 341 342 341 340 339 339 339 338 338 336
315 316 319 317 319 318 317 317 316 317 318 318 318 318 317 317 318 318 319 319 320 320 323 325 329 328 328 330 332 330 333 335 334 333 334 336 337 341 339 338 337 338 340 341 340 341 337 335 336 338 338 338 335 333 335 336 332 333 337 338 341 340 338 340 335 331 328 324 325 334 337 339 336 335 338 338 339 340 341 339 340 339 339 339 338
317 317 314 316 319 318 317 317 316 317 317 318 317 317 318 317 317 318 317 319 320 321 322 325 327 326 326 328 330 330 331 334 336 335 335 334 335 338 337 337 338 339 342 342 343 342 342 341 340 335 334 334 336 333 332 335 335 334 334 337 341 337 338 339 337 335 329 325 326 329 331 335 333 333 335 339 343 343 341 341 340 339 339 339 338
318 316 316 316 316 316 315 316 315 316 316 317 317 317 317 318 316 317 317 317 319 320 322 322 324 324 323 325 328 331 331 331 332 332 332 333 335 336 336 336 339 340 343 343 343 342 342 341 341 336 333 334 335 333 332 335 336 339 338 338 338 336 334 334 334 333 333 331 325 326 331 330 329 333 335 339 340 341 342 342 341 340 339 338 338
318 317 316 313 314 314 315 314 315 315 316 316 316 316 317 316 315 316 316 316 317 318 319 319 321 322 322 324 326 329 332 330 332 333 332 333 333 333 334 338 341 342 342 343 342 342 344 344 342 341 336 334 334 334 335 336 336 337 339 339 338 337 333 330 330 332 331 327 326 328 331 333 332 333 338 341 340 341 341 342 340 340 340 340 340
Wind_Speed
14 20 20 31 31 30 28 28 26 23 23 21 21 21 20 19 18 17 16 16 16 16 15 15 14 14 14 13 13 13 14 15 14 13 13 13 13 14 14 13 14 14 14 15 15 15 15 14 13 15 14 14 14 14 14 14 14 14 14 15 15 15 14 13 14 16 16 15 16 16 15 14 14 14 14 14 14 13 14 15 14 10 8 11 16
6 15 16 19 27 27 25 25 22 23 24 24 23 23 22 18 16 16 16 16 16 16 15 14 13 14 13 13 13 13 13 14 14 13 12 12 13 13 13 13 13 13 14 14 15 14 14 13 14 15 14 14 14 14 13 13 13 13 13 13 14 14 14 14 13 14 15 15 15 16 16 15 15 14 14 16 14 13 13 15 16 9 6 13 16
3 15 15 18 24 23 23 24 22 21 21 22 21 20 18 17 14 13 14 15 15 15 15 14 14 13 13 13 12 11 12 13 14 13 12 12 12 12 12 12 13 13 13 13 14 14 13 13 12 14 14 13 14 13 13 12 13 13 13 12 12 12 12 13 14 14 14 15 15 16 17 16 15 15 16 16 15 15 16 15 16 15 10 17 15
10 7 13 18 24 24 23 23 22 21 19 20 20 21 20 17 15 13 12 13 15 15 15 15 14 13 13 12 12 11 11 12 12 13 12 11 11 11 12 12 12 11 12 13 13 13 13 13 13 12 13 13 12 12 12 12 12 12 12 11 11 10 10 10 10 13 14 15 14 12 7 8 11 15 16 16 16 16 16 16 17 17 17 16 18
13 11 7 11 16 21 21 19 18 18 19 19 19 19 18 18 18 16 13 12 12 15 14 14 14 14 13 12 11 11 10 11 11 11 12 11 10 11 11 12 11 11 12 13 12 12 13 13 13 12 12 12 13 12 12 12 11 11 10 10 9 8 9 9 9 10 12 13 11 9 7 9 8 15 15 16 16 16 16 16 16 16 16 17 16
14 11 8 8 13 17 20 18 18 17 15 15 16 17 15 15 15 17 13 13 12 14 14 13 13 13 13 12 11 11 10 10 10 10 11 10 10 10 10 10 11 11 11 12 12 12 12 13 13 12 12 12 12 11 11 10 10 10 10 9 7 7 5 5 5 7 5 1 7 1 8 8 8 10 16 16 16 16 16 16 16 15 16 18 17
15 11 12 6 8 17 21 19 19 19 18 15 15 16 17 17 15 15 13 11 9 11 15 14 13 11 12 12 11 11 10 9 10 10 10 9 7 9 10 11 10 11 11 12 11 11 12 13 13 12 12 11 11 11 10 9 9 9 8 7 6 4 4 4 4 5 3 2 1 2 7 9 9 8 16 16 16 16 16 16 15 15 15 16 16
14 10 9 9 3 14 18 18 18 20 19 17 15 16 17 17 15 16 15 12 11 8 12 14 12 11 12 11 11 10 9 9 9 9 9 8 8 8 10 10 11 11 11 11 11 11 12 12 12 12 11 10 10 9 9 8 8 8 6 5 4 2 1 2 1 1 2 2 2 2 5 9 8 8 14 15 15 15 15 14 14 15 15 16 16
16 8 7 6 1 14 17 16 15 18 19 18 17 17 17 16 16 16 15 14 13 11 12 13 12 11 11 11 10 9 8 8 8 8 8 9 9 8 8 9 10 10 11 11 11 11 11 11 12 11 10 10 9 8 8 8 7 6 6 3 2 1 1 2 3 2 1 2 4 4 7 9 9 8 12 16 16 15 14 13 14 15 15 14 15
15 7 7 6 1 11 13 14 13 14 16 17 17 16 16 16 17 17 14 14 12 11 12 13 14 12 10 10 9 8 7 7 8 8 8 9 9 9 9 9 9 10 11 11 11 11 11 11 11 11 10 9 8 8 7 7 6 5 4 3 1 1 3 3 5 5 4 5 8 6 6 12 9 8 11 13 12 13 12 13 11 11 12 15 16
11 2 4 4 3 11 14 14 13 12 13 15 15 15 15 15 16 17 15 15 14 12 12 12 13 14 11 9 8 7 7 7 7 7 8 9 9 10 9 9 9 10 11 11 10 11 11 10 10 10 10 9 8 7 7 6 6 4 2 1 1 2 4 5 7 5 7 11 10 8 9 14 8 7 12 14 15 16 14 16 16 15 16 16 15
8 5 2 1 4 7 11 14 13 13 13 13 13 14 12 12 15 17 17 16 15 15 14 13 13 14 14 10 8 7 7 7 7 8 8 9 9 9 9 9 9 10 10 10 9 10 10 9 9 9 9 8 7 7 6 6 5 3 1 1 2 4 5 7 6 1 7 9 11 11 10 10 9 10 15 14 15 16 15 16 16 16 16 15 15
6 4 3 3 3 7 8 9 11 12 11 12 11 12 12 11 10 12 14 16 16 17 16 15 15 15 15 13 9 8 8 8 8 8 8 9 9 9 9 10 7 8 9 10 9 10 9 9 8 8 8 7 6 6 6 5 4 2 1 3 5 6 9 13 6 3 6 8 9 10 10 8 8 14 14 15 15 15 15 15 15 16 16 15 15
7 5 4 5 4 9 8 8 8 9 9 9 10 10 10 10 10 9 11 13 15 16 16 16 16 16 15 15 12 10 8 9 9 8 8 8 9 9 10 10 8 8 8 9 9 9 8 8 7 7 6 6 6 6 5 4 3 1 2 5 6 7 9 9 3 10 7 9 9 11 9 7 9 15 14 14 15 15 15 15 15 16 16 16 15
8 7 6 6 6 6 10 8 8 7 6 7 8 9 9 8 9 9 9 11 13 15 16 16 15 15 16 15 15 13 10 9 9 9 8 9 8 9 10 11 9 9 8 9 9 7 7 6 6 6 6 6 6 6 5 3 2 0 2 5 6 8 9 5 5 4 8 9 9 11 10 8 13 14 15 15 15 14 16 15 15 16 16 15 15
8 8 6 6 7 6 7 8 8 7 7 6 5 6 6 7 7 7 10 11 12 13 14 15 15 15 15 16 16 15 12 9 9 8 8 8 8 8 8 10 9 8 9 9 8 6 6 6 5 6 6 7 7 6 5 3 1 1 2 4 6 8 8 7 5 5 7 7 9 9 9 9 15 14 14 15 15 15 15 16 15 15 16 15 14
9 9 8 7 7 6 6 5 7 7 7 6 5 5 5 3 3 3 4 7 11 12 13 14 15 15 14 15 15 16 15 12 10 9 8 9 8 8 7 9 8 7 8 8 7 6 6 6 6 6 7 7 8 7 5 3 1 1 2 4 7 8 8 7 4 4 4 8 9 8 8 8 14 15 15 16 15 15 15 15 15 15 15 14 14
7 8 8 6 5 6 5 6 6 5 4 4 5 5 6 4 2 3 3 3 3 7 11 13 14 14 14 15 15 16 16 16 13 10 9 9 8 9 8 8 8 7 7 7 7 6 6 7 7 7 8 8 8 7 5 4 2 3 4 6 8 8 8 8 1 5 7 8 10 9 7 11 15 15 15 16 16 16 15 15 15 15 15 13 13
9 9 8 8 8 4 4 4 4 5 4 3 3 3 6 8 4 2 2 1 1 1 3 8 11 13 13 13 15 15 15 15 15 13 11 10 9 8 7 5 7 7 6 7 7 7 7 7 7 8 9 9 8 7 6 4 2 4 5 7 8 9 11 6 4 6 7 6 7 8 7 14 15 15 16 16 15 16 15 15 14 14 15 14 13
7 8 8 8 8 8 6 4 4 3 3 3 3 3 3 6 4 2 4 4 3 2 3 7 8 9 10 11 12 11 12 11 14 12 12 11 10 8 8 6 5 7 6 7 7 7 7 7 7 8 9 9 7 6 5 4 3 5 6 7 8 7 5 1 4 9 7 7 9 6 12 15 16 16 16 17 15 15 15 14 14 14 14 12 14
6 8 7 6 7 7 7 5 5 4 3 4 3 3 4 1 2 2 3 4 5 7 6 6 7 8 8 9 10 8 6 6 8 8 12 8 10 7 8 6 5 6 6 6 7 6 7 7 8 8 8 8 7 6 5 4 4 6 6 8 8 4 1 1 1 7 7 6 8 8 15 15 16 16 16 16 16 15 14 14 13 13 14 13 13
7 7 7 6 6 6 6 6 5 5 3 1 3 3 4 2 4 3 3 3 3 5 6 5 7 6 8 7 5 5 5 6 6 9 7 8 9 10 9 7 5 5 5 6 6 6 7 7 8 8 9 9 9 3 3 4 5 6 7 7 3 2 1 1 6 7 8 6 9 10 16 16 15 15 16 16 15 15 14 14 13 13 13 13 13
8 7 7 8 5 5 4 4 4 4 4 3 3 3 1 4 4 4 3 5 5 5 4 6 6 6 6 6 5 3 5 5 5 7 7 10 9 10 10 8 7 7 6 5 6 6 6 7 8 8 9 10 5 1 3 3 2 6 6 4 1 4 3 7 7 6 7 6 8 14 15 16 15 15 15 15 15 15 14 14 13 13 13 13 13
9 9 7 6 7 6 5 5 4 3 2 3 2 2 2 3 2 3 3 3 3 4 5 5 5 5 5 4 4 3 4 4 8 11 10 7 8 11 10 8 8 6 7 5 5 5 6 6 6 6 6 4 3 1 1 1 1 3 2 2 1 1 2 7 7 7 6 9 9 15 14 15 15 15 14 15 15 15 14 14 13 13 13 13 13
6 7 7 7 7 7 6 5 6 4 4 1 1 2 2 1 3 2 3 3 4 4 4 5 5 5 4 2 4 2 3 4 4 4 4 6 6 6 5 4 3 5 6 3 3 4 4 5 5 5 5 5 3 2 1 2 1 3 2 3 2 2 1 8 7 6 5 7 9 15 14 14 14 15 14 14 14 14 14 13 13 13 13 14 14
7 8 9 7 8 8 7 6 5 5 3 4 3 1 3 2 2 2 2 0 2 2 3 3 3 3 2 2 1 1 3 3 2 5 4 5 6 6 5 5 5 4 5 4 3 3 4 4 5 6 5 4 3 3 1 1 1 1 2 3 3 2 1 7 7 6 5 6 9 14 14 13 14 14 14 13 13 13 13 14 13 13 13 14 15
7 8 7 7 7 7 7 6 6 6 5 4 2 4 2 2 2 1 1 2 2 4 3 4 4 4 4 4 3 1 2 2 4 2 1 4 6 6 6 5 5 4 4 4 4 3 4 5 5 6 5 4 4 3 2 1 1 0 2 3 2 4 4 7 7 6 5 7 9 15 14 14 14 13 13 14 14 13 13 13 13 13 13 14 15
8 8 8 7 7 8 8 8 6 6 5 5 4 3 2 2 1 1 2 2 1 2 4 5 2 5 3 3 2 1 2 2 2 1 2 3 1 4 6 5 4 4 4 5 4 4 5 5 5 6 6 5 5 4 3 2 1 4 2 1 1 1 5 7 6 6 5 6 8 13 15 14 14 13 13 13 13 13 14 13 13 13 13 13 15
9 8 7 7 8 7 8 9 9 9 6 6 5 4 4 2 2 1 2 2 1 1 2 3 5 4 3 3 3 1 2 2 2 1 2 1 1 2 2 4 4 4 4 4 5 3 3 5 5 5 4 4 3 5 5 4 5 3 4 1 3 4 5 8 7 7 6 5 6 11 16 15 14 13 13 13 13 13 13 13 12 13 13 13 13
8 7 6 6 6 7 8 9 9 8 8 7 5 5 4 4 3 2 1 1 2 2 1 2 1 3 2 4 2 2 2 2 2 2 0 1 2 3 3 2 4 4 3 3 4 4 2 4 4 1 5 3 4 5 4 4 3 2 3 5 5 6 5 7 8 7 6 6 6 8 15 14 14 14 14 14 14 13 13 13 13 13 13 13 14
9 8 7 6 6 6 7 8 8 8 7 8 6 6 5 5 5 3 2 1 2 1 2 2 1 2 2 4 3 3 3 3 2 3 3 2 2 3 2 2 1 3 2 3 2 2 2 2 2 2 1 1 4 4 4 4 4 6 9 10 7 5 5 6 7 8 7 6 6 6 10 14 13 13 13 13 14 13 13 13 13 13 13 13 14
8 9 7 6 6 6 6 7 8 8 8 8 7 7 5 5 4 3 2 3 3 3 3 1 2 0 2 3 2 2 3 4 3 3 3 3 3 2 1 1 3 1 2 2 3 3 3 3 3 1 3 0 2 3 5 5 6 7 6 6 6 7 5 3 8 8 7 7 6 6 6 8 12 13 13 13 13 13 13 13 13 14 14 14 14
7 8 8 7 7 6 5 6 7 7 8 8 7 7 6 6 4 4 3 1 2 2 1 2 3 4 2 2 2 3 3 3 4 4 3 3 3 2 2 2 1 2 2 2 3 3 3 5 2 4 3 1 2 3 6 8 7 3 4 1 4 8 6 4 6 8 8 7 6 6 6 6 7 11 12 13 14 13 13 13 13 14 15 14 14
7 6 7 8 6 5 5 5 7 8 8 7 7 7 7 6 5 4 1 3 1 1 3 3 3 3 3 4 3 3 5 5 5 4 3 4 4 3 3 4 2 1 2 2 2 5 1 5 1 1 2 6 6 4 6 4 3 8 3 8 4 5 6 5 5 7 7 7 7 6 6 6 6 5 6 11 11 12 14 13 13 14 15 15 14
7 7 8 8 7 7 6 6 7 7 8 7 8 7 7 7 6 4 3 3 2 2 2 2 1 4 4 3 4 4 4 6 5 5 5 4 4 5 5 5 3 2 2 2 4 4 4 4 4 4 3 4 5 5 6 7 8 10 11 6 6 5 3 5 5 6 7 7 7 7 6 6 6 5 5 4 7 9 11 13 13 14 14 15 15
9 8 8 8 8 8 8 8 7 9 8 7 7 7 7 6 5 5 3 2 3 3 2 3 4 4 4 4 6 6 6 6 6 6 5 4 4 4 5 3 2 1 2 1 2 6 7 6 6 7 5 6 3 7 8 3 3 4 5 6 6 4 5 3 5 6 5 5 6 6 6 6 6 5 6 5 4 5 10 10 12 13 14 15 15
8 8 9 8 8 8 8 9 9 9 9 8 7 8 7 8 6 5 5 4 3 3 3 3 2 4 4 5 6 7 6 6 7 6 5 6 5 5 4 3 1 1 1 5 4 3 2 2 4 3 9 6 5 9 4 6 7 7 3 5 3 6 6 4 4 6 7 5 6 7 6 6 7 8 5 6 5 4 7 9 9 13 13 14 14
7 8 8 9 9 8 8 8 8 8 8 7 7 6 7 8 6 6 6 6 5 3 4 3 5 4 4 5 6 7 6 5 6 6 5 5 5 5 3 2 2 1 1 5 3 4 4 8 7 2 3 9 11 5 1 5 5 5 8 10 0 5 6 5 3 3 4 5 6 6 5 5 6 7 6 6 6 5 4 7 9 8 11 13 14
6 8 8 8 8 8 8 7 9 7 7 7 7 7 6 6 6 6 6 6 5 4 2 1 6 5 4 5 6 6 7 7 4 4 6 5 5 4 3 3 3 3 3 4 3 5 4 11 5 2 3 1 1 3 3 5 5 5 6 4 10 2 6 7 3 3 2 2 4 5 7 5 5 5 6 6 6 5 6 4 3 3 4 9 10
6 6 8 7 8 8 7 7 8 6 6 6 6 7 7 7 7 7 6 7 7 6 5 2 3 5 4 5 4 4 6 8 5 4 7 6 5 6 6 4 4 4 3 4 2 6 10 9 4 1 4 2 3 5 4 6 6 8 5 5 6 10 0 5 6 4 4 1 1 3 4 5 4 6 5 6 6 6 6 6 6 5 4 6 9
6 7 7 7 7 9 8 8 9 7 7 5 6 7 8 8 7 7 7 7 7 7 5 5 2 5 7 3 3 4 5 8 9 5 6 7 6 5 5 6 5 4 5 5 5 7 12 6 4 1 6 3 3 4 4 5 7 5 3 3 2 5 3 3 4 3 3 5 4 1 3 4 4 6 6 5 6 7 6 6 5 7 6 5 5
6 7 9 7 8 8 7 7 7 7 7 6 7 6 7 7 8 7 7 7 7 7 8 5 5 5 4 5 4 6 6 8 10 7 5 6 6 5 4 4 6 5 4 4 8 4 8 5 1 3 2 6 4 5 7 5 2 4 4 2 2 2 2 4 3 4 3 3 4 1 5 0 5 4 5 5 6 6 5 6 5 8 6 6 5
6 6 7 8 8 7 7 8 7 8 6 6 7 7 7 7 8 7 7 6 5 5 5 5 6 5 3 4 5 4 6 8 8 6 4 5 7 7 6 5 6 6 5 3 10 7 9 9 4 2 5 3 3 3 7 1 4 3 2 2 2 2 1 1 1 5 2 3 3 5 6 3 6 4 5 4 5 6 5 5 4 8 9 8 7
5 6 7 7 7 6 8 8 7 7 7 6 7 7 8 8 8 8 8 4 6 6 5 5 7 7 6 4 4 6 6 8 7 6 7 6 6 6 5 4 5 6 5 4 8 8 10 8 4 4 3 5 4 3 3 3 4 9 2 3 3 3 2 2 1 1 1 2 4 1 4 2 2 2 6 5 5 5 5 5 5 5 5 7 8
5 6 6 6 6 6 7 8 6 7 6 8 9 8 7 7 6 7 7 6 5 5 6 7 8 8 7 5 6 6 7 6 6 8 7 5 4 5 6 6 5 4 5 4 7 6 10 9 4 3 4 3 6 3 3 3 5 3 5 3 2 1 1 4 4 1 1 1 3 2 1 3 3 6 4 6 6 4 4 3 5 5 5 4 5
6 6 6 5 6 8 9 8 7 6 7 7 9 8 7 7 8 8 8 7 7 7 9 9 9 9 9 7 7 5 6 6 6 5 7 6 4 5 6 6 6 4 5 6 7 6 9 9 7 3 5 7 6 4 5 5 4 2 2 1 1 2 5 2 3 2 0 0 1 0 2 2 2 4 4 1 3 6 5 5 5 6 5 5 3
6 6 5 8 6 7 7 7 7 6 7 8 9 7 8 7 8 8 7 7 7 5 5 5 5 8 8 7 6 6 4 3 7 10 9 7 4 5 5 5 5 5 4 5 7 8 8 9 8 3 3 2 6 7 7 6 1 2 2 2 2 0 7 5 3 4 2 1 1 1 2 3 3 4 4 2 3 5 5 5 5 5 5 5 5
6 6 4 6 7 6 7 7 7 7 8 9 9 9 8 8 8 8 7 7 7 8 7 7 6 7 8 7 4 6 5 4 7 9 6 6 6 4 4 3 4 4 4 3 4 7 10 13 10 5 3 3 3 8 6 5 8 6 2 1 2 2 4 1 4 3 4 4 1 1 1 3 2 2 2 4 5 4 4 5 6 6 6 5 4
5 4 6 8 5 6 6 6 7 7 8 9 9 9 9 9 8 7 7 7 7 6 6 6 5 7 8 9 5 5 6 5 2 3 3 2 5 2 2 4 3 4 4 3 2 4 4 4 7 8 4 2 3 0 7 5 4 5 4 1 2 2 0 1 3 2 2 3 2 3 2 1 1 3 6 5 6 3 5 5 6 6 6 6 6
3 6 6 7 8 7 7 6 7 7 8 9 8 9 10 8 9 8 9 8 8 7 6 6 6 6 8 9 9 5 3 3 3 0 2 3 4 2 2 5 5 4 4 4 4 3 2 2 6 11 10 8 6 6 8 4 7 3 3 3 3 3 2 2 1 2 3 1 3 4 5 6 5 5 6 6 5 5 4 5 6 6 6 6 5
5 5 6 8 7 8 7 7 8 8 8 8 9 9 8 8 8 9 11 10 9 8 8 8 7 8 8 8 10 8 4 3 1 2 4 3 4 4 4 5 6 5 4 4 4 3 3 3 5 8 10 9 6 7 8 6 5 6 3 4 5 6 6 4 5 3 2 2 1 2 3 5 7 4 7 7 7 6 6 5 6 6 6 6 7
Wind_Direction
346 58 48 51 56 55 45 41 40 46 54 59 67 70 74 72 75 80 82 85 85 85 83 80 79 79 76 75 75 76 82 85 83 81 83 87 91 93 95 97 97 99 100 98 95 93 89 88 92 95 93 88 83 81 80 81 81 80 81 81 83 85 88 90 90 89 87 89 88 89 91 88 91 97 100 96 93 93 90 88 84 83 84 92 95
359 74 73 74 79 85 83 85 79 73 67 59 51 44 49 56 68 79 86 87 88 89 87 83 82 82 80 77 77 79 82 85 86 86 86 89 92 94 95 97 98 98 99 99 96 93 93 92 88 88 87 86 86 86 83 83 83 83 85 87 85 87 88 92 94 93 91 89 88 87 87 89 87 84 95 100 97 90 89 90 90 89 98 98 91
355 75 92 92 91 92 93 97 100 97 99 99 99 89 77 63 58 72 90 93 97 96 93 90 88 87 85 81 82 84 86 87 91 92 92 94 95 95 96 97 100 102 104 102 97 95 94 95 93 86 86 91 91 90 87 86 86 87 87 88 90 89 92 92 95 100 102 96 93 91 87 88 86 87 90 93 89 90 88 89 91 93 93 91 92
35 31 85 88 93 97 95 102 105 108 106 111 112 112 115 108 100 87 80 98 102 99 98 100 97 93 90 88 86 86 86 89 94 97 99 98 98 98 100 102 106 107 99 97 98 97 96 93 89 91 92 90 91 90 90 90 88 87 85 84 88 91 94 102 107 113 113 114 110 103 96 89 90 91 91 92 92 90 89 90 91 92 91 91 91
50 21 56 86 94 96 101 98 107 114 121 121 121 121 119 120 116 100 88 95 101 102 103 105 105 100 98 96 95 90 92 96 98 101 102 104 103 105 107 107 102 100 101 99 102 101 96 95 95 96 96 94 91 90 89 90 90 88 87 86 85 91 94 101 112 119 126 129 109 91 95 91 91 94 95 97 98 96 97 97 96 95 92 93 93
51 26 325 101 99 95 89 97 103 110 107 105 112 112 109 89 88 104 108 111 112 114 110 107 104 106 106 105 102 100 100 100 103 105 109 110 115 117 116 110 102 99 103 105 104 106 105 101 100 98 95 94 94 91 92 93 92 91 89 89 91 96 112 107 117 125 127 89 353 349 104 106 99 97 98 98 97 96 97 97 95 94 96 96 93
65 37 324 316 116 119 121 119 115 115 112 114 111 112 109 107 109 101 87 75 80 107 111 106 104 110 108 108 106 106 105 106 106 107 110 111 113 112 107 103 105 107 108 110 111 109 109 107 104 101 97 97 97 97 95 95 93 93 94 94 100 114 123 141 139 149 128 100 81 314 109 103 99 96 100 99 99 99 99 99 100 101 102 99 93
70 51 310 314 20 116 116 119 120 117 119 113 113 116 114 119 120 112 112 109 105 99 103 108 113 113 111 108 106 106 111 110 114 113 115 115 103 107 110 109 109 115 118 117 116 112 112 110 105 102 101 100 99 99 97 95 96 94 97 99 109 127 141 141 95 150 101 73 315 15 97 103 100 98 101 100 100 103 104 102 100 100 101 101 98
75 58 316 292 64 107 113 119 121 121 124 126 124 124 123 124 121 121 128 125 118 117 118 114 115 115 112 110 110 111 111 114 117 119 116 119 120 110 108 114 120 122 120 121 119 116 112 111 107 104 104 101 102 101 99 94 95 98 99 100 100 78 327 317 265 341 278 194 116 140 109 106 102 101 103 104 103 103 102 103 104 103 101 99 98
97 93 271 277 138 103 105 115 123 126 128 127 126 129 131 135 132 133 131 119 119 120 126 121 116 112 111 113 113 117 118 122 123 124 123 123 122 118 116 120 129 125 124 123 123 119 113 111 109 105 104 104 102 101 98 99 97 97 93 91 50 338 314 303 297 265 120 168 124 92 101 106 101 99 101 99 103 102 107 108 107 104 101 99 99
78 72 257 296 100 111 111 109 116 120 126 125 129 135 140 140 135 133 132 132 130 126 127 123 119 119 117 119 120 121 133 133 132 130 128 125 123 121 125 131 128 130 128 123 124 120 118 112 109 107 105 105 106 106 106 106 101 99 101 112 241 274 279 294 296 266 198 120 118 103 90 101 96 100 107 104 105 105 103 103 104 102 102 102 102
100 126 236 187 71 94 109 117 119 122 127 130 134 136 139 144 142 142 145 142 138 137 136 134 131 129 129 129 135 139 140 144 142 137 134 130 124 129 130 132 132 125 120 122 125 121 118 114 109 109 108 108 109 107 111 107 103 94 114 291 287 296 307 313 299 67 71 102 114 122 114 100 103 112 111 107 105 103 105 102 103 104 105 106 104
79 91 78 38 65 74 76 88 107 115 126 135 137 138 139 141 146 147 147 145 146 144 145 144 143 139 137 138 147 155 152 148 146 145 138 135 136 135 133 122 109 125 127 131 133 117 116 118 117 118 118 111 111 111 109 108 102 103 333 300 314 342 342 326 314 93 84 89 96 87 95 95 106 111 109 111 110 108 107 105 105 106 106 107 106
97 101 91 94 83 82 80 74 84 97 112 129 134 137 138 140 147 147 147 147 146 148 149 149 148 148 144 147 150 150 146 148 148 147 144 141 141 139 138 125 132 127 126 126 119 116 120 125 133 130 128 125 118 123 116 108 107 98 325 320 332 340 334 320 275 100 115 93 87 98 101 105 111 115 112 113 112 109 109 105 107 108 108 106 105
105 107 110 95 76 79 79 71 64 74 85 103 127 135 140 146 152 154 158 157 153 153 153 152 152 151 149 146 144 146 146 148 153 149 148 144 141 143 137 134 148 141 128 117 114 119 125 138 138 140 135 138 136 128 130 117 115 23 328 327 327 328 327 329 325 83 96 107 105 103 100 107 115 115 118 113 109 114 109 107 109 109 107 107 108
91 108 104 101 94 84 79 73 70 61 53 53 85 117 130 142 159 167 166 163 159 157 154 152 153 152 152 147 148 145 144 148 151 150 150 143 142 144 143 134 148 134 130 126 123 128 133 133 142 139 144 144 138 132 131 132 138 309 334 319 315 309 310 313 306 112 113 101 94 93 99 107 114 112 115 114 113 111 108 108 108 109 109 111 112
83 78 79 90 100 88 81 89 90 80 63 66 94 99 106 103 142 168 170 170 164 161 157 155 153 154 148 147 150 149 148 149 151 150 151 145 145 142 150 150 144 143 129 125 125 128 127 133 136 144 148 143 139 136 134 144 162 267 299 289 282 285 301 317 270 67 80 107 117 116 111 109 115 120 120 117 115 113 111 110 109 108 108 112 113
74 78 78 78 87 102 116 128 125 95 87 72 74 69 79 106 155 180 179 176 184 171 159 155 153 151 152 154 155 152 152 150 150 149 150 146 152 146 156 155 151 152 133 129 128 129 134 133 135 136 139 138 138 140 140 137 184 262 279 279 287 300 309 331 301 89 93 93 88 80 90 116 116 121 121 120 118 116 113 111 111 111 110 110 111
70 62 56 56 57 54 112 120 118 130 144 120 130 76 48 32 51 120 132 141 180 217 180 154 152 151 154 158 158 155 154 151 145 148 149 148 153 153 149 166 152 152 138 133 135 136 138 139 136 136 138 140 143 142 143 145 175 256 269 286 299 309 327 328 53 116 109 100 101 97 104 116 119 121 122 120 119 116 115 113 112 111 114 117 116
85 77 52 42 41 42 39 70 86 92 93 121 127 138 73 30 14 161 169 162 149 184 177 161 155 152 153 159 158 156 153 152 148 145 149 152 155 166 153 162 163 149 148 143 136 146 145 145 143 139 139 142 141 142 147 155 211 244 271 279 286 313 319 43 167 87 78 86 92 99 116 115 119 123 123 120 121 120 116 115 114 115 114 117 118
100 92 93 63 44 38 36 42 50 47 89 133 127 118 105 54 290 249 213 174 175 172 170 171 160 156 156 162 163 161 159 156 157 155 150 155 159 159 150 161 177 159 156 151 147 144 151 151 151 154 147 144 145 146 158 174 214 257 261 276 303 334 78 183 138 101 93 103 103 113 120 119 119 124 124 124 122 120 118 116 115 117 117 120 115
85 73 67 75 74 47 36 33 18 26 59 4 150 157 129 174 236 200 223 209 186 177 168 178 176 163 170 171 186 182 174 161 179 164 157 159 153 161 157 172 178 170 163 163 154 157 155 161 166 166 159 153 151 159 181 199 223 254 266 285 321 317 283 255 75 85 93 96 111 117 119 122 123 125 124 123 124 122 121 119 119 118 117 119 121
78 72 63 57 51 70 58 44 50 25 10 81 26 29 69 174 220 202 204 207 205 192 187 190 189 181 178 183 208 207 194 160 177 175 170 158 153 156 161 176 185 177 186 169 169 165 169 171 180 175 168 162 167 184 191 175 213 241 268 289 326 270 227 106 84 91 105 112 107 120 123 123 127 127 124 124 124 124 124 123 122 122 123 123 119
74 70 64 50 41 35 36 36 46 44 31 7 32 26 53 316 231 196 206 192 218 201 203 197 205 187 185 194 218 206 225 152 176 176 162 155 138 151 164 178 194 191 185 181 173 181 179 186 183 179 171 182 196 84 356 304 212 151 266 245 304 285 5 87 92 96 112 125 118 120 123 125 126 126 124 126 127 128 126 127 127 126 126 126 123
54 72 64 52 44 32 22 25 20 23 11 35 313 117 131 282 296 208 203 187 206 196 210 212 192 196 189 179 213 203 231 158 151 172 150 153 144 144 158 168 175 211 189 213 173 180 184 190 194 190 200 198 177 152 210 266 11 40 22 359 313 18 258 93 103 106 108 111 114 118 121 125 124 122 125 127 128 129 129 128 127 127 128 129 129
56 52 50 51 44 34 24 16 20 1 36 336 341 224 168 190 239 300 317 291 277 221 210 205 186 194 144 195 156 0 332 9 157 174 176 157 151 154 166 163 185 208 180 230 195 179 189 206 183 202 216 188 156 159 178 247 72 21 33 187 202 228 183 100 96 102 111 115 119 119 120 121 123 125 126 125 128 129 132 130 130 131 131 132 130
53 55 47 42 42 39 27 19 20 1 11 7 327 327 352 146 213 206 298 317 60 328 248 216 168 181 147 212 144 203 2 41 10 2 200 164 160 154 166 173 176 194 174 211 224 184 188 218 190 194 211 171 167 157 165 213 109 13 215 217 241 210 117 107 112 118 128 119 120 120 121 124 123 124 125 128 128 129 129 132 134 135 133 131 132
52 45 47 34 21 33 27 14 13 14 4 343 348 324 349 351 337 276 195 185 233 264 301 321 303 162 141 196 240 148 111 64 19 354 6 13 0 170 159 169 180 179 188 197 230 208 193 218 204 199 197 174 171 149 158 171 106 237 161 310 296 263 126 116 111 122 128 134 126 124 120 120 123 122 123 122 122 127 131 133 136 130 130 132 132
60 54 47 42 25 18 28 23 6 6 359 349 356 350 348 328 319 270 265 200 201 197 305 307 341 34 12 235 231 177 110 87 140 99 354 9 314 346 167 159 179 189 191 195 222 247 204 233 213 201 183 171 133 146 173 176 162 216 83 299 226 273 121 113 122 130 134 127 123 124 122 122 121 123 123 123 125 125 129 130 131 132 134 131 132
55 54 45 42 35 14 21 25 11 1 354 349 355 352 345 347 332 325 267 223 191 199 215 299 9 71 242 241 208 166 129 150 149 138 209 250 35 320 287 186 171 186 201 210 187 227 248 257 264 239 186 161 149 155 172 169 152 56 56 226 186 199 129 130 131 132 136 127 126 128 125 125 128 128 127 126 128 130 131 133 133 134 132 135 138
57 45 44 37 33 26 21 27 6 7 355 345 354 348 344 351 342 319 344 220 190 213 234 196 230 148 110 289 237 191 155 157 164 162 192 163 170 229 248 258 204 177 180 239 180 95 285 219 282 355 31 165 173 148 168 155 139 156 210 211 159 141 135 132 132 130 130 131 133 133 128 129 131 131 129 130 131 132 134 135 136 136 136 137 141
54 47 35 32 32 27 25 29 12 2 359 349 352 339 345 347 345 327 340 9 293 173 196 197 202 85 183 202 226 254 185 162 181 193 163 141 171 238 302 277 221 147 182 240 114 199 254 13 10 196 207 349 301 166 133 173 174 193 240 124 154 131 138 143 131 129 132 139 141 128 131 133 135 136 136 134 134 134 134 136 139 137 137 142 142
59 47 34 29 32 23 15 33 11 6 359 351 347 340 337 340 341 335 338 108 301 329 243 213 231 185 163 276 205 229 254 177 178 205 165 156 160 179 241 246 263 201 203 252 99 96 42 302 64 355 326 245 255 239 186 178 161 201 110 186 189 135 144 152 136 132 139 142 136 139 136 138 138 137 136 136 138 136 137 139 139 139 141 147 149
46 41 33 31 27 22 19 24 11 12 359 349 350 340 336 333 334 328 356 280 238 135 240 250 231 210 178 205 223 221 202 212 182 194 167 175 166 174 224 245 248 277 228 192 113 103 168 236 91 28 350 40 296 340 329 183 105 139 122 232 153 133 132 149 140 135 140 141 142 143 144 136 142 148 140 143 144 143 140 141 143 143 147 148 152
41 37 34 24 27 26 19 16 11 12 357 348 353 337 335 326 324 320 327 336 242 226 220 161 255 248 201 175 229 234 212 213 201 169 170 184 176 186 213 231 220 205 239 220 119 125 198 259 145 173 138 95 297 211 232 236 168 143 166 184 127 125 129 130 130 133 137 143 145 145 144 143 151 146 141 132 131 131 138 147 147 148 152 152 153
36 32 27 23 23 22 22 15 4 13 355 353 347 342 322 314 314 319 318 331 310 274 216 198 177 218 220 199 199 221 225 214 206 184 170 172 188 199 209 228 250 43 343 297 135 180 190 190 211 168 139 156 168 253 221 240 90 132 123 112 134 135 117 123 123 125 137 146 143 143 149 158 146 146 147 134 132 143 150 149 152 152 153 155 157
34 25 24 19 19 17 20 13 4 13 349 352 347 341 334 327 322 340 336 332 319 290 260 277 227 198 227 222 214 219 233 225 211 190 175 163 186 209 207 222 293 349 70 24 14 316 22 320 243 224 141 167 152 244 288 34 38 11 39 122 139 132 123 114 133 138 149 153 140 151 157 158 147 149 146 145 135 135 142 153 155 159 158 157 159
39 27 25 17 17 10 14 16 356 14 344 349 343 341 339 335 336 349 343 341 335 339 322 267 229 216 224 227 220 215 212 244 226 191 177 170 177 200 191 175 141 257 52 81 270 274 77 237 255 282 171 158 184 163 40 74 67 69 30 343 164 128 124 116 111 128 133 143 155 150 148 150 146 152 150 147 143 141 142 145 150 161 167 163 164
34 35 18 19 19 0 17 11 354 10 345 348 357 343 348 341 336 350 339 339 341 320 252 282 309 293 218 225 233 214 212 223 247 185 158 161 170 178 190 187 159 174 149 142 226 273 194 232 219 224 43 17 99 105 96 77 76 76 78 14 329 300 102 122 128 115 104 115 138 140 139 149 150 149 148 145 145 149 143 150 150 150 146 159 172
45 33 21 16 15 3 17 2 356 356 351 356 2 350 348 342 345 339 344 342 335 335 321 293 254 270 243 243 225 218 210 218 255 199 165 162 170 172 181 187 197 170 164 148 201 259 237 219 196 188 114 10 31 96 101 92 79 63 53 65 347 328 52 118 125 119 106 38 1 133 146 149 153 152 156 144 154 152 159 166 173 152 146 163 171
29 34 15 12 18 9 5 3 358 349 351 1 10 354 350 340 341 338 344 337 335 331 339 332 6 282 298 267 215 246 198 208 225 225 180 164 174 179 171 174 180 169 152 179 144 226 246 220 164 121 137 147 92 110 102 120 107 67 23 69 162 250 328 35 78 56 124 141 218 155 157 147 150 145 155 154 155 162 171 185 172 139 150 147 163
25 33 11 360 25 3 359 0 4 339 1 355 18 357 352 342 329 334 332 336 334 339 335 334 335 326 289 271 217 211 225 212 216 219 190 176 165 175 177 174 185 194 204 167 106 198 277 284 214 140 186 171 147 157 141 134 48 141 140 193 117 264 23 53 69 108 50 73 100 344 10 154 149 152 140 161 152 167 174 189 168 145 148 155 157
26 27 23 350 26 354 2 354 6 343 1 352 17 5 336 335 326 328 325 330 324 330 332 335 328 330 317 275 272 241 211 216 220 209 191 183 179 176 192 184 176 182 193 133 117 176 239 241 225 200 185 164 131 162 160 219 138 130 84 126 148 151 326 55 19 43 53 68 36 68 91 308 298 148 156 149 164 171 181 193 166 144 160 159 163
38 22 14 7 3 357 354 0 359 350 347 359 16 358 334 336 336 331 316 322 330 334 334 0 354 340 339 331 280 261 244 225 214 204 198 203 177 174 178 182 179 183 173 141 121 179 236 237 214 255 233 162 147 198 196 201 161 134 127 223 156 155 149 176 137 92 70 73 85 357 140 174 277 232 156 173 174 179 190 182 155 155 164 164 162
32 24 25 356 1 336 7 354 356 347 355 359 10 351 336 331 337 328 324 335 339 348 344 354 357 343 336 331 303 279 244 213 235 202 196 207 175 168 179 187 191 167 158 136 133 176 220 241 217 241 242 230 168 145 210 248 197 176 142 125 107 227 219 138 133 129 287 172 117 168 29 110 46 297 256 169 165 193 173 202 150 158 162 194 162
38 26 18 356 339 8 10 344 357 352 348 12 2 346 341 339 340 342 338 346 348 353 356 348 349 344 331 316 312 293 259 207 184 245 227 203 188 172 181 184 186 172 143 150 135 140 170 236 253 190 1 324 305 166 169 228 243 223 273 15 294 202 156 160 170 156 215 18 78 117 123 166 164 200 264 17 205 171 184 195 159 161 172 180 172
36 11 21 327 13 359 357 348 351 1 349 6 0 343 339 338 338 334 332 334 336 339 342 340 354 337 325 317 334 323 296 218 192 198 232 210 189 182 188 185 188 187 157 157 145 137 168 210 225 187 172 233 300 260 182 185 99 297 272 278 281 348 129 140 185 107 142 160 252 184 177 181 188 230 229 223 227 178 180 177 165 170 178 184 175
27 359 15 324 8 358 10 355 351 1 11 0 1 344 341 336 335 328 335 335 336 338 346 343 2 341 333 335 344 345 331 260 196 199 235 247 214 169 182 197 192 191 173 171 183 162 162 183 182 179 102 97 272 268 238 180 183 192 223 237 283 77 144 221 140 152 140 147 189 171 219 167 145 254 219 209 244 212 190 171 173 182 174 192 190
30 359 359 326 26 345 14 0 345 12 16 355 354 345 341 334 328 332 336 337 332 340 336 341 359 353 339 347 338 342 356 330 257 205 224 284 297 130 178 215 212 201 188 177 155 163 160 132 126 126 125 182 151 22 306 268 215 196 167 202 231 108 106 53 116 105 147 124 127 169 186 128 132 261 237 215 225 212 192 188 179 186 179 195 193
24 356 353 340 360 359 355 3 360 23 5 2 354 347 338 334 331 336 334 333 339 332 336 348 355 355 352 352 342 326 351 319 70 0 106 299 257 270 192 216 209 221 190 153 150 164 155 148 119 129 153 182 177 184 203 267 293 262 197 161 195 151 168 123 92 114 40 61 156 182 187 170 206 226 208 213 206 226 209 197 181 183 186 193 191
353 13 343 353 360 349 356 0 17 12 2 356 354 342 341 338 337 340 337 336 340 336 338 345 360 353 3 353 352 343 354 75 115 191 94 172 195 238 256 228 214 213 186 153 148 149 138 123 117 130 149 165 166 187 211 185 237 280 239 213 202 185 188 187 171 167 146 154 188 202 190 189 203 204 202 199 196 199 214 202 194 186 195 193 192